Wiscasset, ME

2:31 AM EDT on April 29, 2017 (GMT -0400)
Wiscasset

Weather History for KIWI - February, 2014

Change the Weather History Date:

Friday, February 21, 2014

  Actual Average Record
Temperature  
Mean Temperature 36 °F -  
Max Temperature 39 °F 33 °F 51 °F (2016)
Min Temperature 33 °F 14 °F -16 °F (2015)
Degree Days  
Heating Degree Days 29    
Moisture  
Dew Point 35 °F    
Average Humidity 94    
Maximum Humidity 100    
Minimum Humidity 86    
Precipitation  
Precipitation 0.63 in - - ()
Sea Level Pressure  
Sea Level Pressure 29.96 in    
Wind  
Wind Speed 3 mph (East)    
Max Wind Speed 13 mph    
Max Gust Speed 24 mph    
Visibility 4 miles    
Events Rain , Snow    
Averages and records for this station are not official NWS values.
T = Trace of Precipitation, MM = Missing Value Source: NWS Daily Summary

Daily Weather History Graph

Daily Weather History Graph

Search for Another Location

Airport or City:

Trip Planner

Search our weather history database for the weather conditions in past years. The results will help you decide how hot, cold, wet, or windy it might be!

Date:

Astronomy

Feb. 21, 2014 Rise Set
Actual Time 6:28 AM EST 5:16 PM EST
Civil Twilight 5:59 AM EST 5:45 PM EST
Nautical Twilight 5:26 AM EST 6:19 PM EST
Astronomical Twilight 4:52 AM EST 6:52 PM EST
Moon No Moon Rise 9:36 AM EST (2/21)
Length of Visible Light 11h 46m
Length of Day
10h 47m
Waning Gibbous, 61% of the Moon is Illuminated
Feb 21
Waning Gibbous
Feb 22
Last Quarter
Mar 1
New
Mar 8
First Quarter
Mar 16
Full

Hourly Weather History & Observations

Time (EST) Temp. Windchill Dew Point Humidity Pressure Visibility Wind Dir Wind Speed Gust Speed Precip Events Conditions
12:28 AM 36.0 °F 33.3 °F 32.0 °F 86% 30.19 in 10.0 mi SSE 3.5 mph - N/A   Overcast
12:40 AM 36.0 °F - 32.0 °F 86% 30.20 in 10.0 mi Calm Calm - N/A   Overcast
12:53 AM 36.0 °F - 32.0 °F 86% 30.19 in 10.0 mi Calm Calm - N/A   Overcast
1:53 AM 36.0 °F - 32.0 °F 86% 30.18 in 10.0 mi Calm Calm - N/A   Overcast
2:32 AM 35.1 °F - 32.0 °F 89% 30.18 in 10.0 mi Calm Calm - N/A   Overcast
2:53 AM 35.1 °F - 33.1 °F 92% 30.18 in 10.0 mi Calm Calm - N/A   Overcast
3:13 AM 34.0 °F - 33.1 °F 96% 30.18 in 8.0 mi Calm Calm - 0.00 in   Overcast
3:38 AM 35.1 °F - 33.1 °F 92% 30.18 in 4.0 mi Calm Calm - 0.02 in Snow Light Snow
3:53 AM 34.0 °F 31.0 °F 33.1 °F 96% 30.18 in 4.0 mi East 3.5 mph - 0.02 in Snow Light Snow
4:18 AM 33.1 °F - 32.0 °F 96% 30.18 in 2.5 mi Calm Calm - 0.03 in Snow Light Snow
4:31 AM 33.1 °F - 32.0 °F 96% 30.18 in 3.0 mi Calm Calm - 0.04 in Snow Light Snow
4:45 AM 33.1 °F - 32.0 °F 96% 30.18 in 2.5 mi Calm Calm - 0.05 in Snow Light Snow
4:53 AM 33.1 °F - 32.0 °F 96% 30.19 in 5.0 mi Calm Calm - 0.05 in Snow Light Snow
5:53 AM 33.1 °F 28.7 °F 32.0 °F 96% 30.17 in 6.0 mi ENE 4.6 mph - 0.02 in   Overcast
6:36 AM 34.0 °F - 33.1 °F 96% 30.18 in 6.0 mi Calm Calm - 0.04 in Snow Light Snow
6:53 AM 33.1 °F - 32.0 °F 96% 30.19 in 2.0 mi Calm Calm - 0.05 in Snow Light Snow
7:00 AM 33.1 °F - 32.0 °F 96% 30.17 in 1.2 mi Calm Calm - 0.01 in Snow Light Snow
7:07 AM 33.1 °F - 30.9 °F 92% 30.17 in 1.2 mi Calm Calm - 0.02 in Snow Light Snow
7:21 AM 33.1 °F 28.7 °F 30.9 °F 92% 30.16 in 1.5 mi ENE 4.6 mph - 0.03 in Snow Light Snow
7:53 AM 33.1 °F - 33.1 °F 100% 30.18 in 2.0 mi Calm Calm - 0.07 in Snow Light Snow
8:09 AM 33.1 °F 27.7 °F 30.9 °F 92% 30.16 in 1.2 mi East 5.8 mph - 0.05 in Snow Light Snow
8:17 AM 33.1 °F 30.0 °F 32.0 °F 96% 30.17 in 2.0 mi Variable 3.5 mph - 0.08 in Rain Rain
8:27 AM 34.0 °F - 33.1 °F 96% 30.18 in 5.0 mi Calm Calm - 0.08 in Rain Light Rain
8:46 AM 33.1 °F - 32.0 °F 96% 30.19 in 10.0 mi Calm Calm - 0.08 in   Overcast
8:53 AM 33.1 °F 30.0 °F 30.9 °F 92% 30.19 in 10.0 mi ENE 3.5 mph - 0.08 in   Overcast
9:53 AM 34.0 °F 27.2 °F 32.0 °F 92% 30.13 in 10.0 mi ENE 8.1 mph - 0.01 in   Overcast
10:53 AM 35.1 °F 31.0 °F 33.1 °F 92% 30.14 in 10.0 mi East 4.6 mph - 0.00 in   Overcast
11:53 AM 37.0 °F 31.6 °F 35.1 °F 93% 30.07 in 1.8 mi East 6.9 mph - 0.05 in Rain Heavy Rain
12:02 PM 37.0 °F 31.6 °F 35.1 °F 93% 30.07 in 3.0 mi East 6.9 mph - 0.01 in Rain Light Rain
12:14 PM 37.0 °F 31.6 °F 35.1 °F 93% 30.07 in 4.0 mi East 6.9 mph - 0.01 in   Overcast
12:26 PM 37.0 °F 31.6 °F 36.0 °F 96% 30.07 in 1.8 mi East 6.9 mph - 0.01 in   Overcast
12:53 PM 37.0 °F 31.6 °F 36.0 °F 96% 30.06 in 1.5 mi Variable 6.9 mph - 0.02 in   Overcast
1:07 PM 37.9 °F 32.7 °F 36.0 °F 93% 30.06 in 1.2 mi ESE 6.9 mph - N/A   Overcast
1:18 PM 37.9 °F 32.7 °F 36.0 °F 93% 30.05 in 1.5 mi ESE 6.9 mph - N/A   Overcast
1:34 PM 37.9 °F 33.5 °F 36.0 °F 93% 30.03 in 1.2 mi ESE 5.8 mph - N/A   Overcast
1:46 PM 37.9 °F 30.9 °F 36.0 °F 93% 30.01 in 1.5 mi East 10.4 mph - N/A   Overcast
1:53 PM 37.9 °F 31.5 °F 36.0 °F 93% 29.99 in 1.8 mi East 9.2 mph 18.4 mph N/A   Overcast
2:02 PM 37.9 °F 31.5 °F 36.0 °F 93% 29.99 in 2.0 mi East 9.2 mph - N/A   Overcast
2:32 PM 37.9 °F 31.5 °F 36.0 °F 93% 29.97 in 4.0 mi East 9.2 mph - N/A   Overcast
2:53 PM 37.9 °F 30.0 °F 36.0 °F 93% 29.96 in 10.0 mi ESE 12.7 mph 21.9 mph N/A   Overcast
3:26 PM 37.9 °F 31.5 °F 36.0 °F 93% 29.92 in 2.0 mi East 9.2 mph 19.6 mph N/A   Overcast
3:33 PM 37.9 °F 30.5 °F 36.0 °F 93% 29.91 in 1.5 mi ESE 11.5 mph 18.4 mph N/A   Overcast
3:46 PM 37.9 °F 31.5 °F 36.0 °F 93% 29.90 in 1.2 mi ESE 9.2 mph - N/A   Overcast
3:53 PM 37.9 °F 31.5 °F 36.0 °F 93% 29.91 in 1.2 mi ESE 9.2 mph 17.3 mph N/A   Overcast
4:05 PM 37.9 °F 31.5 °F 36.0 °F 93% 29.91 in 1.5 mi ESE 9.2 mph 19.6 mph N/A   Overcast
4:17 PM 37.9 °F 31.5 °F 36.0 °F 93% 29.90 in 1.2 mi East 9.2 mph 17.3 mph N/A   Overcast
4:26 PM 37.9 °F 30.9 °F 36.0 °F 93% 29.89 in 1.0 mi East 10.4 mph - N/A   Overcast
4:53 PM 37.9 °F 30.9 °F 36.0 °F 93% 29.86 in 1.0 mi East 10.4 mph 24.2 mph N/A   Overcast
5:19 PM 37.9 °F 31.5 °F 37.0 °F 97% 29.83 in 2.0 mi East 9.2 mph - 0.01 in   Overcast
5:53 PM 39.0 °F 32.3 °F 37.0 °F 93% 29.80 in 2.0 mi East 10.4 mph - 0.02 in Rain Light Rain
6:04 PM 39.0 °F 32.8 °F 37.0 °F 93% 29.78 in 1.8 mi East 9.2 mph - 0.01 in Rain Light Rain
6:13 PM 39.0 °F 32.8 °F 37.0 °F 93% 29.77 in 2.5 mi East 9.2 mph 17.3 mph 0.01 in Rain Light Rain
6:30 PM 39.0 °F 34.0 °F 37.9 °F 96% 29.73 in 4.0 mi East 6.9 mph 17.3 mph 0.02 in Rain Light Rain
6:53 PM 39.9 °F 36.7 °F 37.9 °F 93% 29.71 in 7.0 mi East 4.6 mph - 0.03 in Rain Light Rain
7:15 PM 39.9 °F 35.1 °F 39.0 °F 97% 29.70 in 2.0 mi ENE 6.9 mph - 0.15 in Rain Heavy Rain
7:26 PM 39.9 °F 34.5 °F 39.0 °F 97% 29.69 in 5.0 mi East 8.1 mph - 0.18 in Rain Light Rain
7:53 PM 39.0 °F 36.8 °F 37.0 °F 93% 29.68 in 2.0 mi NE 3.5 mph - 0.20 in Rain Light Rain
7:59 PM 37.9 °F - 37.0 °F 97% 29.66 in 1.2 mi Calm Calm - 0.00 in Rain Light Rain
8:08 PM 37.9 °F 35.5 °F 37.0 °F 97% 29.65 in 2.5 mi NE 3.5 mph - 0.01 in Rain Light Rain
8:15 PM 37.0 °F - 37.0 °F 100% 29.66 in 4.0 mi Calm Calm - 0.01 in   Overcast
8:22 PM 37.0 °F - 37.0 °F 100% 29.66 in 1.8 mi Calm Calm - 0.01 in   Overcast
8:27 PM 37.9 °F - 37.0 °F 97% 29.65 in 1.0 mi Calm Calm - 0.01 in   Overcast
8:36 PM 37.0 °F - 37.0 °F 100% 29.65 in 0.8 mi Calm Calm - 0.01 in   Overcast
8:48 PM 37.4 °F - 35.6 °F 93% 29.66 in 1.0 mi Calm Calm - 0.01 in   Overcast
8:53 PM 36.0 °F - 35.1 °F 97% 29.66 in 1.0 mi Calm Calm - 0.01 in   Overcast
9:23 PM 39.0 °F 35.7 °F 37.9 °F 96% 29.67 in 2.0 mi West 4.6 mph - N/A   Overcast
9:33 PM 39.0 °F 35.7 °F 37.9 °F 96% 29.67 in 4.0 mi Variable 4.6 mph - N/A   Overcast
9:53 PM 37.9 °F 33.5 °F 37.0 °F 97% 29.67 in 4.0 mi Variable 5.8 mph - N/A   Overcast
10:38 PM 37.0 °F - 35.1 °F 93% 29.70 in 10.0 mi North - - N/A   Overcast
10:53 PM 37.0 °F 34.5 °F 35.1 °F 93% 29.71 in 10.0 mi Variable 3.5 mph - N/A   Overcast
11:36 PM 36.0 °F - 34.0 °F 93% 29.74 in 10.0 mi Calm Calm - N/A   Scattered Clouds
11:53 PM 35.1 °F - 34.0 °F 96% 29.75 in 10.0 mi Calm Calm - N/A   Clear